Fairbury, Nebraska, United States (68352)
Lat: 40.14N, Lon: 97.18W
Wx Zone: NEZ088
Local Info
Past Weather Observations for Today

NOTE: This archive is for the closest National Weather Service station to Fairbury. Information may differ from the station used for current weather conditions.

Click here for Long-term Archive

Time Weather Temperature Dewpoint Humidity Pressure Winds Precip Visibility
20:35
Partly Cloudy
70°F / 21°C 55°F / 13°C 60% 30.12 in
(1020 mb)
NE 5.8 mph
(NE 9 kph)
- 10SM
20:15
Partly Cloudy
70°F / 21°C 55°F / 13°C 60% 30.12 in
(1020 mb)
ENE 4.6 mph
(ENE 7 kph)
- 10SM
19:55
Clear
72°F / 22°C 55°F / 13°C 57% 30.12 in
(1020 mb)
ENE 6.9 mph
(ENE 11 kph)
- 10SM
19:35
Clear
72°F / 22°C 57°F / 14°C 61% 30.12 in
(1020 mb)
NE 4.6 mph
(NE 7 kph)
- 10SM
19:15
Clear
73°F / 23°C 55°F / 13°C 53% 30.12 in
(1020 mb)
NE 5.8 mph
(NE 9 kph)
- 10SM
18:55
Clear
75°F / 24°C 55°F / 13°C 50% 30.12 in
(1020 mb)
NE 5.8 mph
(NE 9 kph)
- 10SM
18:35
Partly Cloudy
77°F / 25°C 55°F / 13°C 47% 30.12 in
(1020 mb)
ENE 5.8 mph
(ENE 9 kph)
- 10SM
18:15
Partly Cloudy
79°F / 26°C 54°F / 12°C 42% 30.12 in
(1020 mb)
NE 8.1 mph
(NE 13 kph)
- 10SM
17:55
Mostly Cloudy
79°F / 26°C 55°F / 13°C 45% 30.12 in
(1020 mb)
NE 6.9 mph
(NE 11 kph)
- 10SM
17:35
Partly Cloudy
81°F / 27°C 54°F / 12°C 39% 30.12 in
(1020 mb)
NE 6.9 mph
(NE 11 kph)
- 10SM
17:15
Clear
79°F / 26°C 55°F / 13°C 45% 30.12 in
(1020 mb)
ENE 8.1 mph
(ENE 13 kph)
- 10SM
16:55
Clear
81°F / 27°C 54°F / 12°C 39% 30.12 in
(1020 mb)
NE 4.6 mph
(NE 7 kph)
- 10SM
16:35
Partly Cloudy
79°F / 26°C 55°F / 13°C 45% 30.12 in
(1020 mb)
NE 6.9 mph
(NE 11 kph)
- 10SM
16:15
Partly Cloudy
81°F / 27°C 55°F / 13°C 42% 30.12 in
(1020 mb)
E 5.8 mph
(E 9 kph)
- 10SM
15:55
Clear
81°F / 27°C 54°F / 12°C 39% 30.15 in
(1021 mb)
ENE 3.5 mph
(ENE 6 kph)
- 10SM
15:35
Clear
81°F / 27°C 54°F / 12°C 39% 30.15 in
(1021 mb)
NE 3.5 mph
(NE 6 kph)
- 10SM
15:15
Clear
81°F / 27°C 52°F / 11°C 37% 30.15 in
(1021 mb)
Calm - 10SM
14:55
Clear
81°F / 27°C 54°F / 12°C 39% 30.15 in
(1021 mb)
NE 4.6 mph
(NE 7 kph)
- 10SM
14:35
Clear
79°F / 26°C 54°F / 12°C 42% 30.18 in
(1022 mb)
E 4.6 mph
(E 7 kph)
- 10SM
14:15
Partly Cloudy
79°F / 26°C 54°F / 12°C 42% 30.18 in
(1022 mb)
Calm - 10SM
13:55
Clear
79°F / 26°C 54°F / 12°C 42% 30.18 in
(1022 mb)
NNE 5.8 mph
(NNE 9 kph)
- 10SM
13:35
Partly Cloudy
77°F / 25°C 54°F / 12°C 44% 30.18 in
(1022 mb)
NE 4.6 mph
(NE 7 kph)
- 10SM
13:15
Clear
77°F / 25°C 52°F / 11°C 42% 30.21 in
(1023 mb)
E 4.6 mph
(E 7 kph)
- 10SM
12:55
Clear
75°F / 24°C 54°F / 12°C 47% 30.21 in
(1023 mb)
ENE 4.6 mph
(ENE 7 kph)
- 10SM
12:35
Partly Cloudy
73°F / 23°C 52°F / 11°C 47% 30.21 in
(1023 mb)
Calm - 10SM
12:15
Mostly Cloudy
73°F / 23°C 54°F / 12°C 50% 30.21 in
(1023 mb)
N 3.5 mph
(N 6 kph)
- 10SM
11:55
Partly Cloudy
73°F / 23°C 55°F / 13°C 53% 30.21 in
(1023 mb)
Calm - 10SM
11:35
Partly Cloudy
72°F / 22°C 55°F / 13°C 57% 30.21 in
(1023 mb)
NE 3.5 mph
(NE 6 kph)
- 10SM
11:15
Mostly Cloudy
73°F / 23°C 54°F / 12°C 50% 30.24 in
(1024 mb)
Calm - 10SM
10:55
Overcast
72°F / 22°C 55°F / 13°C 57% 30.24 in
(1024 mb)
Calm - 10SM
10:35
Overcast
70°F / 21°C 55°F / 13°C 60% 30.24 in
(1024 mb)
Calm - 10SM
10:15
Overcast
70°F / 21°C 55°F / 13°C 60% 30.24 in
(1024 mb)
SW 3.5 mph
(SW 6 kph)
- 10SM
09:55
Overcast
70°F / 21°C 55°F / 13°C 60% 30.24 in
(1024 mb)
SSW 4.6 mph
(SSW 7 kph)
- 10SM
09:35
Overcast
70°F / 21°C 54°F / 12°C 57% 30.24 in
(1024 mb)
Calm - 10SM
09:15
Overcast
68°F / 20°C 55°F / 13°C 64% 30.24 in
(1024 mb)
SW 3.5 mph
(SW 6 kph)
- 10SM
08:55
Overcast
68°F / 20°C 57°F / 14°C 69% 30.24 in
(1024 mb)
Calm - 10SM
08:35
Overcast
66°F / 19°C 57°F / 14°C 73% 30.24 in
(1024 mb)
Calm - 10SM
08:15
Overcast
66°F / 19°C 57°F / 14°C 73% 30.24 in
(1024 mb)
SSW 3.5 mph
(SSW 6 kph)
- 10SM
07:55
Overcast
66°F / 19°C 57°F / 14°C 73% 30.24 in
(1024 mb)
SSW 3.5 mph
(SSW 6 kph)
- 10SM
07:35
Overcast
66°F / 19°C 57°F / 14°C 73% 30.24 in
(1024 mb)
Calm - 10SM
07:15
Overcast
64°F / 18°C 57°F / 14°C 78% 30.24 in
(1024 mb)
Calm - 10SM
06:55
Overcast
64°F / 18°C 55°F / 13°C 73% 30.24 in
(1024 mb)
Calm - 10SM
06:35
Overcast
64°F / 18°C 55°F / 13°C 73% 30.24 in
(1024 mb)
Calm - 10SM
06:15
Overcast
64°F / 18°C 55°F / 13°C 73% 30.21 in
(1023 mb)
Calm - 10SM
05:55
Overcast
63°F / 17°C 55°F / 13°C 77% 30.21 in
(1023 mb)
Calm - 10SM
05:35
Overcast
64°F / 18°C 55°F / 13°C 73% 30.21 in
(1023 mb)
Calm - 10SM
05:15
Overcast
64°F / 18°C 57°F / 14°C 78% 30.21 in
(1023 mb)
Calm - 10SM
04:55
Overcast
64°F / 18°C 57°F / 14°C 78% 30.24 in
(1024 mb)
Calm - 10SM
04:35
Overcast
64°F / 18°C 57°F / 14°C 78% 30.21 in
(1023 mb)
Calm - 10SM
04:15
Overcast
64°F / 18°C 57°F / 14°C 78% 30.21 in
(1023 mb)
Calm - 10SM
03:55
Overcast
64°F / 18°C 57°F / 14°C 78% 30.21 in
(1023 mb)
Calm - 10SM
03:35
Overcast
63°F / 17°C 57°F / 14°C 83% 30.21 in
(1023 mb)
Calm - 10SM
03:15
Overcast
63°F / 17°C 57°F / 14°C 83% 30.21 in
(1023 mb)
Calm - 10SM
02:55
Overcast
63°F / 17°C 57°F / 14°C 83% 30.21 in
(1023 mb)
Calm - 10SM
02:35
Overcast
63°F / 17°C 57°F / 14°C 83% 30.21 in
(1023 mb)
Calm - 10SM
02:15
Overcast
63°F / 17°C 57°F / 14°C 83% 30.21 in
(1023 mb)
Calm - 10SM
01:55
Mostly Cloudy
63°F / 17°C 57°F / 14°C 83% 30.21 in
(1023 mb)
Calm - 10SM
01:35
Partly Cloudy
63°F / 17°C 57°F / 14°C 83% 30.21 in
(1023 mb)
Calm - 10SM
01:15
Partly Cloudy
63°F / 17°C 57°F / 14°C 83% 30.21 in
(1023 mb)
Calm - 10SM
00:55
Mostly Cloudy
64°F / 18°C 57°F / 14°C 78% 30.21 in
(1023 mb)
Calm - 10SM
00:35
Mostly Cloudy
64°F / 18°C 57°F / 14°C 78% 30.21 in
(1023 mb)
Calm - 10SM
00:15
Mostly Cloudy
64°F / 18°C 57°F / 14°C 78% 30.21 in
(1023 mb)
Calm - 10SM
Time Weather Temperature Dewpoint Humidity Pressure Winds Precip Visibility


Weather for websites

WeatherForYou.com, LLC is not responsible for any damages or problems caused by this service. Current weather conditions are obtained from the closest station including government and personal stations which may have varying degrees of accuracy. Weather forecasts are derived from the NOAA NDFD. Like all things, this site belongs to Jesus Christ... He just trusts me to maintain it. If you have any questions or comments email webmaster@weatherforyou.com

Copyright © 2014, WeatherForYou.com LLC. All rights reserved.